Time,TemperatureF,DewpointF,PressureIn,WindDirection,WindDirectionDegrees,WindSpeedMPH,WindSpeedGustMPH,Humidity,HourlyPrecipIn,Conditions,Clouds,dailyrainin,SolarRadiationWatts/m^2,SoftwareType,DateUTC
2013-07-29 00:09:00,65.0,63.0,30.01,East,94,0.0,0.0,92,0.00,,,0.00,0,weatherlink.com 1.10,2013-07-29 04:09:00,
2013-07-29 00:24:00,64.5,63.0,30.01,ESE,105,0.0,0.0,93,0.00,,,0.00,0,weatherlink.com 1.10,2013-07-29 04:24:00,
2013-07-29 00:39:00,64.0,62.0,30.01,East,90,0.0,0.0,93,0.00,,,0.00,0,weatherlink.com 1.10,2013-07-29 04:39:00,
2013-07-29 00:54:00,63.6,62.0,30.01,ENE,73,0.0,0.0,94,0.00,,,0.00,0,weatherlink.com 1.10,2013-07-29 04:54:00,
2013-07-29 01:09:00,63.5,62.0,30.00,NE,49,0.0,0.0,95,0.00,,,0.00,0,weatherlink.com 1.10,2013-07-29 05:09:00,
2013-07-29 01:24:00,63.3,62.0,30.00,NE,49,0.0,0.0,95,0.00,,,0.00,0,weatherlink.com 1.10,2013-07-29 05:24:00,
2013-07-29 01:40:00,63.2,62.0,30.00,NE,49,0.0,0.0,95,0.00,,,0.00,0,weatherlink.com 1.10,2013-07-29 05:40:00,
2013-07-29 01:55:00,63.0,62.0,30.00,NE,49,0.0,0.0,95,0.00,,,0.00,0,weatherlink.com 1.10,2013-07-29 05:55:00,
2013-07-29 02:10:00,62.9,62.0,30.00,ENE,66,0.0,0.0,96,0.00,,,0.00,0,weatherlink.com 1.10,2013-07-29 06:10:00,
2013-07-29 02:25:00,62.6,62.0,30.00,ENE,71,0.0,0.0,96,0.00,,,0.00,0,weatherlink.com 1.10,2013-07-29 06:25:00,
2013-07-29 02:40:00,62.2,61.0,30.00,ENE,71,0.0,0.0,95,0.00,,,0.00,0,weatherlink.com 1.10,2013-07-29 06:40:00,
2013-07-29 02:55:00,62.3,61.0,30.00,ENE,71,0.0,0.0,96,0.00,,,0.00,0,weatherlink.com 1.10,2013-07-29 06:55:00,
2013-07-29 03:10:00,62.1,61.0,30.01,ENE,71,0.0,0.0,96,0.00,,,0.00,0,weatherlink.com 1.10,2013-07-29 07:10:00,
2013-07-29 03:25:00,62.0,61.0,30.00,ENE,71,0.0,0.0,96,0.00,,,0.00,0,weatherlink.com 1.10,2013-07-29 07:25:00,
2013-07-29 03:40:00,61.8,61.0,30.01,ENE,71,0.0,0.0,96,0.00,,,0.00,0,weatherlink.com 1.10,2013-07-29 07:40:00,
2013-07-29 03:55:00,61.6,61.0,30.00,ENE,71,0.0,0.0,96,0.00,,,0.00,0,weatherlink.com 1.10,2013-07-29 07:55:00,
2013-07-29 04:10:00,61.0,60.0,30.01,ENE,71,0.0,0.0,96,0.00,,,0.00,0,weatherlink.com 1.10,2013-07-29 08:10:00,
2013-07-29 04:25:00,60.8,59.0,30.01,ENE,71,0.0,0.0,95,0.00,,,0.00,0,weatherlink.com 1.10,2013-07-29 08:25:00,
2013-07-29 04:40:00,60.8,60.0,30.01,ENE,71,0.0,0.0,97,0.00,,,0.00,0,weatherlink.com 1.10,2013-07-29 08:40:00,
2013-07-29 04:55:00,60.9,60.0,30.01,ENE,71,0.0,0.0,97,0.00,,,0.00,0,weatherlink.com 1.10,2013-07-29 08:55:00,
2013-07-29 05:10:00,61.0,60.0,30.02,ENE,71,0.0,0.0,97,0.00,,,0.00,0,weatherlink.com 1.10,2013-07-29 09:10:00,
2013-07-29 05:25:00,60.7,60.0,30.02,ENE,71,0.0,0.0,97,0.00,,,0.00,0,weatherlink.com 1.10,2013-07-29 09:25:00,
2013-07-29 05:40:00,60.6,60.0,30.03,ENE,71,0.0,0.0,97,0.00,,,0.00,0,weatherlink.com 1.10,2013-07-29 09:40:00,
2013-07-29 05:55:00,60.6,60.0,30.03,ENE,71,0.0,0.0,97,0.00,,,0.00,0,weatherlink.com 1.10,2013-07-29 09:55:00,
2013-07-29 06:25:00,61.1,60.0,30.04,ENE,71,1.0,2.0,97,0.00,,,0.00,0,weatherlink.com 1.10,2013-07-29 10:25:00,
2013-07-29 06:55:00,61.0,60.0,30.04,ENE,78,1.0,1.0,97,0.00,,,0.00,16,weatherlink.com 1.10,2013-07-29 10:55:00,
2013-07-29 07:10:00,61.7,61.0,30.04,East,84,0.0,2.0,97,0.00,,,0.00,32,weatherlink.com 1.10,2013-07-29 11:10:00,
2013-07-29 07:25:00,62.3,62.0,30.04,East,84,0.0,0.0,98,0.00,,,0.00,47,weatherlink.com 1.10,2013-07-29 11:25:00,
2013-07-29 07:40:00,62.7,62.0,30.05,East,84,0.0,0.0,98,0.00,,,0.00,46,weatherlink.com 1.10,2013-07-29 11:40:00,
2013-07-29 07:55:00,63.2,62.0,30.05,East,84,0.0,1.0,97,0.00,,,0.00,58,weatherlink.com 1.10,2013-07-29 11:55:00,
2013-07-29 08:10:00,63.5,63.0,30.05,NE,51,0.0,1.0,97,0.00,,,0.00,76,weatherlink.com 1.10,2013-07-29 12:10:00,
2013-07-29 08:25:00,64.0,63.0,30.05,NNW,333,0.0,1.0,97,0.00,,,0.00,127,weatherlink.com 1.10,2013-07-29 12:25:00,
2013-07-29 08:40:00,64.4,64.0,30.06,NNW,333,0.0,0.0,97,0.00,,,0.00,88,weatherlink.com 1.10,2013-07-29 12:40:00,
2013-07-29 08:55:00,64.8,63.0,30.06,NE,54,0.0,1.0,95,0.00,,,0.00,109,weatherlink.com 1.10,2013-07-29 12:55:00,
2013-07-29 09:25:00,66.3,64.0,30.07,South,183,0.0,0.0,93,0.00,,,0.00,144,weatherlink.com 1.10,2013-07-29 13:25:00,
2013-07-29 09:55:00,66.8,64.0,30.08,NE,46,0.0,1.0,90,0.00,,,0.00,162,weatherlink.com 1.10,2013-07-29 13:55:00,
2013-07-29 10:10:00,67.2,64.0,30.08,SW,227,0.0,3.0,89,0.00,,,0.00,232,weatherlink.com 1.10,2013-07-29 14:10:00,
2013-07-29 10:26:00,67.7,64.0,30.09,SSW,211,0.0,3.0,87,0.00,,,0.00,374,weatherlink.com 1.10,2013-07-29 14:26:00,
2013-07-29 10:41:00,69.3,65.0,30.09,SSW,205,1.0,3.0,87,0.00,,,0.00,589,weatherlink.com 1.10,2013-07-29 14:41:00,
2013-07-29 10:56:00,70.2,65.0,30.10,SSE,160,1.0,5.0,83,0.00,,,0.00,469,weatherlink.com 1.10,2013-07-29 14:56:00,
2013-07-29 11:11:00,71.0,65.0,30.09,SSW,198,1.0,4.0,81,0.00,,,0.00,480,weatherlink.com 1.10,2013-07-29 15:11:00,
2013-07-29 11:56:00,72.9,65.0,30.09,North,5,1.0,5.0,75,0.00,,,0.00,946,weatherlink.com 1.10,2013-07-29 15:56:00,
2013-07-29 12:11:00,73.4,63.0,30.09,West,268,0.0,3.0,69,0.00,,,0.00,524,weatherlink.com 1.10,2013-07-29 16:11:00,
2013-07-29 12:56:00,75.9,65.0,30.09,South,178,0.0,3.0,69,0.00,,,0.00,974,weatherlink.com 1.10,2013-07-29 16:56:00,
2013-07-29 13:11:00,76.6,62.0,30.09,SW,223,2.0,7.0,60,0.00,,,0.00,854,weatherlink.com 1.10,2013-07-29 17:11:00,
2013-07-29 13:26:00,76.9,62.0,30.08,SSE,163,0.0,5.0,60,0.00,,,0.00,933,weatherlink.com 1.10,2013-07-29 17:26:00,
2013-07-29 13:41:00,78.3,63.0,30.08,SW,215,3.0,6.0,60,0.00,,,0.00,1000,weatherlink.com 1.10,2013-07-29 17:41:00,
2013-07-29 13:56:00,79.3,62.0,30.08,West,271,6.0,6.0,55,0.00,,,0.00,969,weatherlink.com 1.10,2013-07-29 17:56:00,
2013-07-29 14:11:00,78.6,60.0,30.08,NNE,29,4.0,10.0,53,0.00,,,0.00,937,weatherlink.com 1.10,2013-07-29 18:11:00,
2013-07-29 14:26:00,79.0,59.0,30.09,SW,228,4.0,10.0,50,0.00,,,0.00,932,weatherlink.com 1.10,2013-07-29 18:26:00,
2013-07-29 14:41:00,78.9,60.0,30.08,WSW,242,7.0,10.0,52,0.00,,,0.00,918,weatherlink.com 1.10,2013-07-29 18:41:00,
2013-07-29 14:56:00,79.3,58.0,30.08,SW,225,5.0,12.0,49,0.00,,,0.00,916,weatherlink.com 1.10,2013-07-29 18:56:00,
2013-07-29 16:26:00,78.6,55.0,30.07,SW,224,3.0,7.0,45,0.00,,,0.00,512,weatherlink.com 1.10,2013-07-29 20:26:00,
2013-07-29 16:41:00,77.9,56.0,30.07,West,269,2.0,6.0,47,0.00,,,0.00,309,weatherlink.com 1.10,2013-07-29 20:41:00,
2013-07-29 16:56:00,79.0,58.0,30.07,WNW,291,2.0,5.0,48,0.00,,,0.00,610,weatherlink.com 1.10,2013-07-29 20:56:00,
2013-07-29 17:11:00,78.7,58.0,30.07,NW,310,4.0,7.0,50,0.00,,,0.00,515,weatherlink.com 1.10,2013-07-29 21:11:00,
2013-07-29 17:26:00,77.1,60.0,30.07,WNW,294,0.0,6.0,56,0.00,,,0.00,265,weatherlink.com 1.10,2013-07-29 21:26:00,
2013-07-29 18:12:00,76.1,60.0,30.07,WSW,252,3.0,5.0,58,0.00,,,0.00,190,weatherlink.com 1.10,2013-07-29 22:12:00,
2013-07-29 18:27:00,75.0,60.0,30.07,WSW,252,0.0,4.0,60,0.00,,,0.00,155,weatherlink.com 1.10,2013-07-29 22:27:00,
2013-07-29 18:41:00,74.8,62.0,30.08,NW,321,2.0,3.0,65,0.00,,,0.00,267,weatherlink.com 1.10,2013-07-29 22:41:00,
2013-07-29 18:57:00,75.5,61.0,30.08,North,5,3.0,4.0,62,0.00,,,0.00,253,weatherlink.com 1.10,2013-07-29 22:57:00,
2013-07-29 19:12:00,74.6,61.0,30.08,West,278,2.0,7.0,62,0.00,,,0.00,123,weatherlink.com 1.10,2013-07-29 23:12:00,
2013-07-29 19:27:00,73.1,61.0,30.08,WSW,247,0.0,4.0,67,0.00,,,0.00,86,weatherlink.com 1.10,2013-07-29 23:27:00,
2013-07-29 19:42:00,72.5,61.0,30.08,WSW,240,0.0,3.0,67,0.00,,,0.00,74,weatherlink.com 1.10,2013-07-29 23:42:00,
2013-07-29 19:57:00,72.3,62.0,30.09,West,260,2.0,4.0,69,0.00,,,0.00,67,weatherlink.com 1.10,2013-07-29 23:57:00,
2013-07-29 20:12:00,71.5,61.0,30.09,West,268,0.0,5.0,70,0.00,,,0.00,32,weatherlink.com 1.10,2013-07-30 00:12:00,
2013-07-29 20:42:00,69.9,61.0,30.10,WNW,293,0.0,1.0,73,0.00,,,0.00,0,weatherlink.com 1.10,2013-07-30 00:42:00,
2013-07-29 20:57:00,69.2,61.0,30.10,North,9,0.0,3.0,75,0.00,,,0.00,0,weatherlink.com 1.10,2013-07-30 00:57:00,
2013-07-29 21:12:00,67.3,61.0,30.11,NNE,13,0.0,0.0,81,0.00,,,0.00,0,weatherlink.com 1.10,2013-07-30 01:12:00,
2013-07-29 21:27:00,65.9,61.0,30.12,NNE,13,0.0,0.0,85,0.00,,,0.00,0,weatherlink.com 1.10,2013-07-30 01:27:00,
2013-07-29 21:42:00,65.0,61.0,30.12,NNE,20,0.0,0.0,87,0.00,,,0.00,0,weatherlink.com 1.10,2013-07-30 01:42:00,
2013-07-29 22:12:00,63.9,61.0,30.13,ESE,119,0.0,0.0,90,0.00,,,0.00,0,weatherlink.com 1.10,2013-07-30 02:12:00,
2013-07-29 22:27:00,63.6,61.0,30.14,ESE,119,0.0,0.0,90,0.00,,,0.00,0,weatherlink.com 1.10,2013-07-30 02:27:00,
2013-07-29 22:42:00,63.6,61.0,30.14,ENE,59,0.0,0.0,90,0.00,,,0.00,0,weatherlink.com 1.10,2013-07-30 02:42:00,
2013-07-29 22:57:00,62.9,60.0,30.15,East,95,0.0,0.0,91,0.00,,,0.00,0,weatherlink.com 1.10,2013-07-30 02:57:00,
2013-07-29 23:27:00,61.9,60.0,30.14,East,95,0.0,0.0,92,0.00,,,0.00,0,weatherlink.com 1.10,2013-07-30 03:27:00,
2013-07-29 23:42:00,61.5,60.0,30.15,East,86,0.0,0.0,93,0.00,,,0.00,0,weatherlink.com 1.10,2013-07-30 03:42:00,